Temperature
21 22 21 20 20 20 20 19 19 19 19 19 19 19 19 19 19 19 19 19 18 18 18 18 18 18 18 18 18 18 18 18 18 18 18 18 18 18 17 17 17 17 17
22 22 21 21 20 20 20 19 19 19 19 19 19 19 19 19 19 18 18 18 18 18 18 18 18 18 18 18 18 18 18 18 18 18 18 18 18 17 17 17 17 17 17
22 22 21 21 20 20 20 19 19 19 19 19 19 19 19 18 18 18 18 18 18 18 18 18 18 18 18 18 18 18 18 18 18 18 18 18 17 17 17 17 17 17 17
22 22 21 21 20 20 20 19 19 19 19 19 19 19 18 18 18 18 18 18 18 18 18 18 18 18 18 18 18 18 18 18 17 17 17 17 17 17 17 17 17 17 17
21 21 21 21 20 20 20 19 19 19 19 19 19 19 18 18 18 18 18 18 18 18 18 18 18 18 18 18 18 18 18 17 17 17 17 17 17 17 17 17 17 17 17
21 21 21 21 20 20 20 19 19 19 19 19 19 18 18 18 18 18 18 18 18 18 18 18 18 18 18 18 18 18 18 17 17 17 17 17 17 17 17 17 17 17 17
21 21 21 21 20 20 20 19 19 19 19 19 19 18 18 18 18 18 18 18 18 18 18 18 18 18 18 18 18 18 18 18 17 17 17 18 17 17 17 17 17 17 17
21 21 21 20 20 20 19 19 19 19 19 19 19 18 18 18 18 18 18 18 18 18 18 18 18 18 18 18 18 18 18 18 17 17 18 18 17 17 17 17 17 17 17
21 21 21 20 20 20 19 19 19 19 19 19 19 19 18 18 18 18 18 18 18 18 18 18 18 18 18 18 18 18 18 18 18 17 18 18 17 17 17 17 17 17 17
21 20 20 20 20 20 19 19 19 19 19 19 19 19 18 18 18 18 18 18 18 18 18 18 18 18 18 19 19 19 18 18 18 18 18 18 17 17 17 17 17 17 17
21 20 19 20 20 19 19 19 19 19 19 19 19 19 18 18 18 18 18 18 18 18 18 18 18 18 18 19 19 19 19 18 18 18 18 18 18 17 17 17 17 17 17
21 20 19 19 19 19 18 19 19 19 19 19 19 18 18 18 18 18 18 18 18 18 18 18 18 18 18 18 18 19 19 18 18 18 18 18 18 17 17 17 17 17 17
21 20 20 19 19 19 19 19 18 18 19 18 18 18 18 18 18 18 18 18 18 18 18 18 18 18 18 18 18 18 19 18 18 18 18 18 18 18 17 17 17 17 17
21 20 20 19 19 19 19 19 19 18 18 18 18 18 18 18 18 18 18 18 18 18 18 18 18 18 18 18 18 18 18 18 18 18 18 18 18 18 17 17 17 17 17
20 20 20 20 19 19 19 19 19 19 19 18 18 18 18 18 18 18 18 18 18 18 18 18 18 18 18 18 18 18 18 18 18 18 18 18 18 18 17 17 17 17 17
20 20 20 19 19 19 19 19 19 19 19 19 18 18 18 18 18 18 18 18 18 18 18 18 18 18 18 18 18 18 18 18 18 18 18 18 17 17 17 17 17 17 17
20 20 19 19 19 19 19 19 19 19 19 19 18 18 18 18 18 18 18 18 18 18 18 18 18 18 18 18 18 18 18 18 18 17 17 17 17 17 17 17 17 17 17
20 19 19 19 19 19 19 19 19 19 19 18 18 18 18 18 18 18 18 18 18 18 18 18 18 18 18 18 18 18 18 18 18 17 17 17 17 17 17 17 17 17 17
20 19 19 19 18 18 18 18 18 18 18 18 18 18 18 18 18 18 18 18 18 18 18 18 17 18 18 18 18 18 18 18 18 18 17 17 17 17 17 17 17 17 17
19 19 19 18 18 18 18 18 18 18 18 18 18 18 18 18 18 18 18 18 18 18 17 17 17 17 18 18 18 18 18 18 18 18 17 17 17 17 17 17 17 17 16
19 19 18 18 18 18 18 18 18 18 18 18 18 18 18 18 18 18 18 18 18 17 17 17 17 17 18 18 18 18 18 18 18 18 18 17 17 17 17 17 16 16 16
19 18 18 18 18 18 18 18 18 18 18 18 18 18 18 18 18 18 18 18 18 17 17 17 17 17 18 18 18 18 18 18 18 18 18 17 17 17 17 17 16 16 16
19 18 18 18 18 18 18 17 17 17 17 17 17 18 18 18 18 18 18 17 17 17 17 17 17 17 17 18 18 18 18 18 18 18 18 18 17 17 17 17 17 16 16
19 18 18 18 18 18 18 17 17 17 17 18 18 18 17 17 18 17 18 17 17 17 17 17 17 17 17 17 18 18 18 18 18 18 18 18 17 17 17 17 16 16 16
19 18 18 18 18 18 17 17 17 17 17 18 17 17 17 17 17 17 17 17 17 17 17 17 17 17 17 17 18 18 18 18 18 18 18 17 17 17 17 17 17 16 16
19 19 18 18 18 18 17 17 17 17 17 17 17 17 17 17 17 17 17 17 17 17 17 17 17 17 17 17 17 17 18 18 18 18 18 18 18 17 17 17 17 16 16
Wind_Speed
19 20 21 19 18 17 16 16 16 16 16 16 16 16 17 17 17 17 17 17 17 17 16 16 17 17 17 18 18 18 18 19 19 20 20 19 17 16 16 18 18 17 18
23 21 22 20 19 18 17 17 16 16 16 16 16 16 16 16 16 17 17 17 17 17 17 17 17 17 17 17 17 16 16 17 18 19 19 18 16 15 15 16 17 16 17
24 22 21 20 19 18 18 17 16 16 16 16 16 16 15 16 16 17 17 17 17 17 18 18 17 17 17 16 15 14 14 14 15 17 17 16 15 16 17 18 18 17 17
23 21 20 21 20 19 18 17 16 16 16 16 15 15 15 15 16 17 17 17 17 17 18 17 17 17 16 15 13 11 11 11 11 11 12 15 15 16 17 17 17 16 16
22 21 22 22 20 19 18 17 16 16 16 15 15 15 15 15 16 17 17 17 17 17 17 17 17 16 14 13 10 8 8 7 6 9 16 17 16 16 16 16 16 16 15
22 22 22 22 21 19 18 17 17 16 16 15 15 14 15 15 16 16 16 17 17 17 17 16 15 14 13 11 8 5 4 3 4 14 15 17 15 15 16 15 15 15 15
22 21 22 22 21 19 18 17 17 16 15 15 14 14 15 15 16 16 16 16 16 16 15 15 14 13 11 8 5 3 1 1 6 14 16 16 15 15 15 15 15 15 15
22 21 21 22 21 19 18 17 16 16 15 15 15 14 15 15 15 15 15 15 15 15 14 14 13 11 9 7 3 1 3 3 12 16 17 16 15 15 15 15 15 14 14
21 21 18 19 19 19 18 17 16 16 15 15 15 15 15 15 15 15 14 14 14 14 13 12 11 11 9 6 2 1 4 5 9 14 17 15 15 15 15 15 14 13 13
19 20 18 18 18 17 16 17 16 16 15 15 15 15 15 15 15 15 14 14 13 12 12 11 11 10 8 5 2 2 5 6 10 16 15 15 15 15 14 14 13 13 12
17 17 17 17 16 17 17 17 16 16 15 15 14 14 15 13 14 13 15 13 12 11 11 10 10 9 7 5 3 3 4 1 12 15 15 16 15 14 13 13 12 12 11
17 16 15 16 15 15 15 15 14 14 14 13 13 13 10 10 12 13 15 13 11 10 9 8 8 8 7 6 5 5 4 6 12 14 14 16 15 13 12 12 11 11 11
15 15 15 13 11 12 11 12 10 11 12 12 13 12 10 11 12 12 10 10 9 9 8 8 7 7 6 4 3 3 1 7 13 14 14 15 14 13 12 11 10 10 10
14 14 14 13 9 8 10 8 8 8 8 8 12 12 9 5 6 7 7 9 9 7 5 5 4 4 3 3 1 1 4 8 14 14 14 15 14 12 11 10 10 9 9
13 13 12 12 10 7 7 6 7 7 8 9 11 9 10 5 5 5 4 5 6 7 5 2 2 3 2 2 1 3 4 8 13 14 13 14 13 12 11 10 9 9 8
14 14 12 12 10 8 6 4 4 6 6 9 9 10 9 7 6 5 4 2 3 5 5 3 4 3 1 1 2 3 3 6 10 14 14 12 12 12 11 10 9 8 8
14 13 12 12 11 9 8 7 5 5 7 6 7 10 8 9 8 5 4 3 3 6 5 2 3 3 2 3 2 2 3 5 7 12 13 12 11 11 10 10 9 9 8
14 13 13 13 12 10 8 6 5 5 6 6 9 10 8 9 9 5 4 4 6 6 4 2 2 2 1 2 2 2 3 3 5 8 10 12 12 11 11 10 9 9 8
14 14 13 11 12 11 9 6 5 4 4 6 8 9 9 10 9 6 4 4 6 4 3 3 3 2 1 1 2 2 2 3 3 4 6 9 11 12 12 12 11 10 9
14 14 13 12 12 11 8 6 4 5 5 5 6 7 10 9 9 6 5 5 4 3 3 2 4 2 1 1 1 3 2 3 3 2 3 6 9 10 12 12 12 10 10
14 14 13 13 12 10 8 8 7 6 5 5 5 9 10 10 9 5 4 5 3 4 4 5 4 4 2 1 1 2 2 3 4 3 2 3 5 7 9 12 11 10 10
14 14 14 13 13 12 8 7 6 6 5 6 6 8 10 10 9 7 5 5 4 4 4 4 3 2 3 3 1 2 2 1 1 4 3 4 4 4 6 9 9 10 11
15 16 15 14 14 12 10 8 7 6 5 6 7 7 8 9 9 6 7 4 5 5 5 5 5 4 2 2 2 0 1 2 2 1 2 3 3 2 2 6 9 9 9
16 15 14 14 13 12 12 11 12 10 9 8 7 7 7 8 8 8 7 5 5 4 6 6 6 3 3 3 2 1 1 2 1 2 1 3 4 4 3 3 6 9 10
16 15 14 14 13 12 12 12 11 9 8 7 7 10 9 7 7 8 8 6 5 4 6 5 5 3 2 3 2 3 2 1 2 3 3 3 3 3 4 3 4 7 9
14 14 14 14 13 13 12 11 11 10 9 9 9 10 9 7 6 8 8 6 5 4 5 5 4 4 2 1 0 1 2 2 2 2 2 3 3 3 4 3 3 5 8
Wind_Direction
125 128 130 128 127 124 119 115 112 109 105 101 98 95 92 91 91 93 92 94 94 94 95 95 92 91 89 90 91 92 94 95 96 97 97 97 97 97 101 104 100 97 99
126 130 130 129 128 126 122 118 115 112 109 105 102 99 96 95 93 94 94 93 94 95 96 96 95 94 93 93 95 97 101 104 106 106 103 97 93 93 94 97 97 102 101
125 131 131 129 129 127 124 121 118 115 112 109 105 103 100 98 98 98 98 96 95 96 97 97 98 98 97 97 99 103 108 113 118 120 115 103 95 92 94 98 101 103 101
128 135 133 131 130 128 126 124 122 119 115 112 109 107 104 102 101 100 99 99 98 98 98 99 99 98 98 99 103 109 114 119 127 130 112 103 100 97 99 102 104 104 103
133 133 132 134 131 130 128 126 125 122 118 116 113 110 108 106 104 102 101 101 100 100 100 100 100 100 100 101 104 110 115 121 130 109 96 96 97 101 101 103 105 104 104
133 131 135 135 132 131 130 128 127 124 122 120 116 114 112 109 107 104 103 102 101 101 101 102 102 102 102 103 104 104 109 119 111 104 103 103 102 104 104 106 107 106 105
132 131 136 136 134 133 132 131 129 127 126 124 121 117 114 111 110 107 106 105 103 103 105 105 105 105 106 105 104 94 34 27 115 104 99 99 104 105 105 105 106 105 105
130 132 136 136 136 135 134 133 132 131 129 127 125 122 119 115 113 112 111 109 107 107 108 109 108 110 110 107 101 48 351 351 106 108 104 104 109 107 106 107 106 105 105
131 133 140 140 139 138 137 137 136 135 134 131 130 128 125 122 119 117 115 113 112 112 113 113 114 116 117 119 124 313 323 349 97 114 110 110 113 112 112 112 110 109 108
134 140 145 146 145 145 143 142 141 140 139 137 136 135 132 130 127 126 119 116 116 117 118 119 122 125 129 140 177 283 321 339 107 106 109 116 119 117 116 115 115 114 113
140 145 148 149 152 153 150 147 147 146 145 144 144 145 145 145 139 138 121 123 123 123 125 129 135 139 146 166 206 256 289 78 97 101 109 122 123 120 119 119 119 120 118
147 151 151 153 158 158 152 149 156 156 155 161 153 160 171 145 136 128 130 132 133 134 138 145 152 162 175 180 200 230 252 132 114 105 115 126 126 125 124 124 124 125 125
153 156 153 154 161 158 147 159 162 155 161 168 157 167 164 139 134 130 140 142 149 156 163 157 177 189 191 177 171 209 174 95 107 111 124 128 130 130 131 131 130 130 130
158 159 155 154 157 150 149 163 157 153 164 161 158 169 152 145 140 142 147 156 164 163 159 160 157 142 147 124 139 84 78 98 110 119 133 137 136 136 137 139 139 139 139
159 159 153 151 152 150 145 160 161 153 161 148 155 166 149 146 139 130 129 150 152 144 146 148 117 104 95 106 114 91 76 92 116 124 135 143 143 144 146 148 150 152 153
165 162 154 153 148 143 146 160 147 147 145 144 150 155 158 143 128 128 131 137 124 128 127 136 127 112 108 100 87 98 89 93 116 125 138 147 151 153 157 159 162 165 165
167 160 156 158 153 151 157 171 155 150 151 141 141 150 154 138 136 143 138 147 123 119 128 139 128 136 170 147 125 108 101 99 117 132 144 152 160 164 166 168 172 174 175
164 159 163 168 160 160 161 173 158 155 151 144 146 150 157 143 150 156 147 151 140 140 146 142 164 157 120 127 131 128 123 121 134 140 149 156 159 167 174 178 180 184 186
162 161 166 166 163 166 163 165 160 146 143 142 146 150 157 153 156 159 148 137 157 155 158 177 142 138 144 137 169 158 146 142 132 151 146 150 158 164 168 178 184 189 193
162 162 166 164 163 164 161 162 157 154 152 149 148 146 153 159 163 167 147 151 178 154 144 117 121 118 150 212 218 141 151 154 154 148 163 154 160 167 169 169 178 188 193
161 162 165 168 166 163 168 170 169 169 167 160 156 152 160 167 164 170 152 154 175 149 154 160 153 168 201 181 185 152 186 177 158 158 170 155 161 167 157 164 177 176 178
165 168 171 174 171 171 173 172 171 164 171 173 169 159 166 168 166 175 155 163 165 153 163 167 160 189 198 180 203 175 167 156 215 172 168 168 160 171 169 171 168 169 169
173 175 177 176 174 174 171 171 172 163 178 174 165 167 172 167 172 175 156 173 165 169 169 179 181 195 205 191 199 217 150 171 174 157 176 144 146 158 174 159 165 162 163
178 177 174 175 174 174 175 180 178 177 182 180 173 170 170 172 173 168 164 176 177 176 162 190 183 184 198 213 183 174 160 118 138 145 191 160 169 171 184 181 160 164 165
178 177 176 174 174 177 184 186 184 183 182 176 172 165 170 175 176 171 168 171 180 177 172 179 151 187 203 220 197 186 175 167 228 177 180 179 185 172 177 180 162 166 164
175 175 177 175 176 180 185 186 189 184 179 178 174 167 173 173 180 175 171 166 176 182 163 154 162 185 212 215 310 206 170 184 216 209 180 187 184 176 172 166 162 168 176
Height
1495 1497 1500 1503 1505 1508 1510 1512 1514 1515 1517 1518 1520 1521 1522 1523 1525 1526 1527 1528 1530 1531 1532 1534 1535 1536 1538 1539 1541 1542 1544 1545 1546 1547 1549 1550 1551 1553 1554 1555 1556 1557 1558
1493 1497 1500 1504 1506 1509 1511 1514 1516 1517 1519 1521 1522 1523 1525 1526 1527 1528 1529 1531 1532 1533 1535 1536 1537 1539 1540 1542 1543 1545 1546 1547 1549 1550 1552 1553 1554 1555 1556 1557 1559 1559 1561
1493 1497 1501 1505 1508 1511 1513 1515 1518 1520 1521 1523 1524 1526 1527 1528 1530 1531 1532 1533 1535 1536 1537 1538 1540 1541 1543 1544 1546 1547 1549 1550 1551 1553 1554 1555 1557 1558 1559 1560 1561 1562 1563
1494 1498 1502 1506 1509 1512 1515 1517 1520 1522 1523 1525 1527 1528 1530 1531 1532 1533 1535 1536 1537 1538 1540 1541 1542 1544 1545 1547 1548 1550 1551 1553 1554 1556 1557 1558 1559 1560 1561 1562 1564 1565 1566
1496 1499 1503 1507 1510 1513 1516 1519 1521 1523 1525 1527 1529 1530 1532 1533 1534 1536 1537 1538 1539 1541 1542 1543 1545 1546 1547 1549 1551 1552 1554 1555 1556 1558 1559 1560 1561 1562 1564 1565 1566 1567 1568
1498 1500 1504 1508 1511 1514 1518 1520 1523 1525 1527 1529 1531 1532 1534 1535 1537 1538 1539 1541 1542 1543 1544 1546 1547 1549 1550 1552 1553 1555 1556 1558 1559 1560 1561 1562 1563 1564 1566 1567 1568 1569 1570
1499 1501 1505 1509 1512 1516 1519 1522 1524 1526 1529 1530 1532 1534 1536 1537 1539 1540 1541 1543 1544 1546 1547 1548 1550 1551 1553 1554 1556 1557 1558 1560 1561 1562 1563 1564 1565 1566 1567 1568 1570 1571 1573
1499 1502 1506 1510 1513 1517 1520 1523 1525 1528 1530 1532 1534 1536 1538 1539 1541 1542 1544 1545 1546 1548 1549 1551 1552 1553 1555 1556 1558 1559 1560 1562 1563 1564 1565 1566 1567 1568 1569 1570 1572 1573 1574
1500 1502 1507 1510 1514 1517 1520 1524 1526 1529 1531 1533 1535 1537 1539 1541 1543 1544 1546 1547 1549 1550 1552 1553 1554 1556 1557 1558 1560 1561 1563 1564 1565 1565 1566 1567 1569 1570 1571 1572 1573 1575 1576
1500 1503 1507 1511 1514 1518 1521 1524 1527 1530 1532 1534 1536 1539 1541 1542 1544 1546 1548 1549 1551 1552 1554 1555 1556 1558 1559 1561 1562 1564 1565 1566 1566 1566 1567 1569 1570 1571 1572 1574 1575 1576 1577
1501 1504 1507 1511 1514 1518 1521 1525 1528 1530 1533 1535 1538 1540 1542 1544 1546 1548 1550 1551 1553 1554 1556 1557 1559 1560 1562 1563 1564 1566 1567 1567 1567 1567 1568 1570 1571 1573 1574 1575 1576 1577 1579
1500 1504 1507 1511 1515 1519 1522 1525 1528 1531 1534 1536 1539 1541 1543 1546 1548 1549 1551 1553 1554 1556 1557 1559 1561 1562 1563 1565 1566 1567 1568 1569 1568 1568 1570 1572 1573 1574 1575 1576 1577 1578 1580
1499 1503 1507 1511 1515 1519 1522 1525 1528 1532 1534 1537 1539 1542 1544 1547 1549 1551 1552 1554 1555 1557 1559 1561 1562 1564 1565 1567 1568 1568 1569 1570 1570 1570 1572 1573 1574 1575 1576 1577 1578 1579 1580
1499 1503 1507 1510 1514 1518 1521 1525 1528 1531 1534 1537 1539 1543 1545 1548 1550 1551 1553 1555 1556 1558 1560 1562 1564 1565 1566 1568 1569 1570 1570 1571 1571 1572 1573 1574 1575 1576 1577 1578 1579 1580 1581
1497 1501 1505 1508 1513 1517 1520 1524 1528 1531 1534 1536 1539 1542 1545 1548 1550 1552 1553 1556 1557 1559 1561 1563 1564 1566 1567 1568 1569 1571 1571 1572 1572 1573 1574 1575 1576 1577 1578 1579 1580 1581 1581
1494 1499 1503 1507 1511 1515 1519 1522 1526 1530 1533 1536 1538 1541 1545 1547 1549 1551 1553 1556 1558 1559 1561 1563 1565 1566 1568 1569 1570 1571 1572 1573 1573 1574 1575 1576 1577 1577 1578 1579 1580 1581 1582
1492 1496 1500 1504 1509 1513 1517 1522 1526 1529 1532 1535 1537 1540 1543 1546 1548 1551 1553 1555 1557 1559 1561 1563 1565 1566 1568 1569 1571 1572 1573 1574 1574 1575 1575 1576 1577 1578 1578 1579 1580 1581 1582
1490 1494 1498 1503 1507 1511 1515 1520 1524 1527 1531 1534 1536 1539 1542 1545 1547 1550 1552 1555 1557 1558 1560 1562 1564 1566 1568 1569 1570 1572 1573 1574 1575 1575 1576 1576 1577 1577 1578 1579 1580 1580 1581
1487 1492 1496 1501 1505 1509 1514 1518 1522 1526 1528 1532 1535 1538 1541 1543 1546 1549 1551 1553 1556 1558 1560 1562 1564 1565 1567 1569 1570 1571 1572 1573 1574 1575 1576 1576 1577 1577 1577 1578 1579 1580 1581
1486 1490 1494 1498 1503 1507 1512 1516 1520 1524 1527 1530 1533 1536 1539 1542 1545 1548 1550 1552 1555 1557 1559 1561 1563 1565 1566 1568 1570 1571 1572 1573 1574 1574 1575 1576 1576 1577 1577 1578 1579 1579 1580
1484 1487 1491 1495 1500 1505 1509 1513 1517 1521 1525 1528 1531 1534 1537 1540 1543 1546 1549 1551 1553 1556 1558 1560 1562 1564 1566 1567 1569 1570 1571 1572 1573 1573 1574 1575 1576 1577 1577 1578 1578 1579 1579
1480 1485 1489 1493 1498 1502 1507 1511 1515 1520 1523 1527 1530 1532 1535 1538 1541 1544 1547 1549 1552 1554 1556 1559 1560 1563 1565 1566 1568 1569 1570 1572 1572 1573 1573 1574 1575 1576 1577 1577 1578 1578 1578
1478 1482 1486 1491 1495 1499 1504 1509 1514 1518 1521 1525 1527 1530 1533 1536 1539 1542 1545 1547 1550 1552 1554 1557 1559 1561 1563 1565 1566 1568 1569 1569 1571 1572 1573 1574 1575 1575 1576 1577 1577 1577 1577
1475 1480 1484 1488 1492 1497 1501 1505 1509 1513 1517 1521 1524 1527 1531 1534 1537 1540 1542 1545 1548 1550 1553 1555 1557 1559 1561 1563 1564 1566 1567 1568 1570 1571 1573 1573 1574 1575 1575 1576 1576 1576 1576
1472 1477 1482 1486 1490 1494 1498 1502 1507 1511 1515 1518 1522 1525 1528 1531 1534 1537 1540 1543 1546 1548 1551 1553 1555 1557 1559 1561 1562 1564 1566 1567 1568 1569 1570 1572 1573 1573 1574 1575 1575 1575 1575
1471 1475 1480 1483 1487 1491 1495 1499 1503 1507 1511 1515 1519 1522 1525 1528 1531 1535 1538 1541 1544 1546 1548 1551 1553 1555 1556 1558 1560 1562 1564 1565 1567 1568 1569 1569 1570 1572 1572 1573 1574 1574 1574